Weather History for CXDI - October, 2012

Change the Weather History Date:

Tuesday, October 30, 2012

  Actual Average Record
Temperature  
Mean Temperature 45 °F -  
Max Temperature 53 °F - - ()
Min Temperature 37 °F - - ()
Degree Days  
Heating Degree Days 20    
Moisture  
Dew Point 44 °F    
Average Humidity 95    
Maximum Humidity 96    
Minimum Humidity 92    
Precipitation  
Precipitation 0.20 in - - ()
Sea Level Pressure  
Sea Level Pressure 29.25 in    
Wind  
Wind Speed 10 mph ()    
Max Wind Speed 20 mph    
Max Gust Speed 36 mph    
T = Trace of Precipitation, MM = Missing Value Source: Averaged Metar Reports

Daily Weather History Graph

Daily Weather History Graph

Search for Another Location

Airport or City:

Trip Planner

Search our weather history database for the weather conditions in past years. The results will help you decide how hot, cold, wet, or windy it might be!

Date:

Astronomy

Oct. 30, 2012 Rise Set
Actual Time 7:54 AM EDT 6:16 PM EDT
Civil Twilight 7:25 AM EDT 6:45 PM EDT
Nautical Twilight 6:51 AM EDT 7:19 PM EDT
Astronomical Twilight 6:18 AM EDT 7:52 PM EDT
Moon 6:43 PM EDT (10/30) 8:41 AM EDT (10/30)
Length of Visible Light 11h 20m
Length of Day
10h 21m
Full, 99% of the Moon is Illuminated
Oct 30
Full
Nov 6
Last Quarter
Nov 13
New
Nov 20
First Quarter
Nov 28
Full

Hourly Weather History & Observations

Time (EDT) Temp. Windchill Dew Point Humidity Pressure Visibility Wind Dir Wind Speed Gust Speed Precip Events Conditions
12:00 AM 37.9 °F 27.9 °F 36.9 °F 96% 29.36 in - North 19.6 mph 35.7 mph 0.02 in   Unknown
1:00 AM 37.8 °F 28.3 °F 36.7 °F 96% 29.30 in - North 17.3 mph 31.1 mph 0.02 in   Unknown
2:00 AM 39 °F - 38 °F 96% 29.27 in - North 17.3 mph - -  
2:00 AM 39.4 °F 30.4 °F 38.3 °F 96% 29.27 in - North 17.3 mph 25.3 mph N/A   Unknown
3:00 AM 39.0 °F 30.6 °F 37.9 °F 96% 29.22 in - North 15.0 mph 24.2 mph 0.02 in   Unknown
4:00 AM 41.2 °F 33.4 °F 40.1 °F 96% 29.18 in - North 15.0 mph 29.9 mph N/A   Unknown
5:00 AM 41.2 °F 33.4 °F 40.1 °F 96% 29.17 in - North 15.0 mph 26.5 mph N/A   Unknown
6:00 AM 41.4 °F 34.0 °F 40.1 °F 95% 29.16 in - North 13.8 mph 24.2 mph 0.01 in   Unknown
7:00 AM 43.5 °F 37.5 °F 42.3 °F 95% 29.16 in - North 11.5 mph 20.7 mph N/A   Unknown
8:00 AM 44 °F - 43 °F 96% 29.18 in - North 10.4 mph - -  
8:00 AM 44.4 °F 39.0 °F 43.2 °F 95% 29.18 in - North 10.4 mph 18.4 mph N/A   Unknown
9:00 AM 44.6 °F 39.2 °F 43.3 °F 95% 29.20 in - North 10.4 mph 19.6 mph 0.02 in   Unknown
10:00 AM 45.3 °F 40.6 °F 44.1 °F 95% 29.21 in - North 9.2 mph - 0.01 in   Unknown
11:00 AM 45.9 °F 41.7 °F 44.6 °F 95% 29.21 in - North 8.1 mph - 0.08 in   Unknown
12:00 PM 48.9 °F - 47.7 °F 95% 29.22 in - North 8.1 mph - 0.02 in   Unknown
1:00 PM 50.9 °F - 49.6 °F 95% 29.21 in - North 6.9 mph - N/A   Unknown
2:00 PM 53 °F - 51 °F 92% 29.22 in - North 6.9 mph - -  
2:00 PM 52.7 °F - 51.4 °F 95% 29.22 in - North 6.9 mph - N/A   Unknown
3:00 PM 51.1 °F - 49.6 °F 95% 29.22 in - NNE 4.6 mph - 0.02 in   Unknown
4:00 PM 49.8 °F - 48.4 °F 95% 29.24 in - NNE 3.5 mph - 0.06 in   Unknown
5:00 PM 50.5 °F - 49.1 °F 95% 29.25 in - NNE 3.5 mph - N/A   Unknown
6:00 PM 47.7 °F - 46.2 °F 95% 29.28 in - NNE 1.2 mph - 0.01 in   Unknown
7:00 PM 46.9 °F - 45.5 °F 95% 29.30 in - ESE 3.5 mph - 0.04 in   Unknown
8:00 PM 46 °F - 44 °F 92% 29.32 in - SE 2.3 mph - -  
8:00 PM 45.7 °F - 44.4 °F 95% 29.32 in - SE 2.3 mph - 0.08 in   Unknown
9:00 PM 44.2 °F - 43.0 °F 95% 29.34 in - Calm Calm - 0.08 in   Unknown
10:00 PM 44.1 °F - 42.8 °F 95% 29.34 in - Calm Calm - N/A   Unknown
11:00 PM 43.7 °F - 42.4 °F 95% 29.34 in - Calm Calm - 0.02 in   Unknown